Weather History for Rome, NY

Change the Weather History Date:

Saturday, October 6, 2012

  Actual Average Record
Temperature  
Mean Temperature 54 °F -  
Max Temperature 60 °F 61 °F 84 °F (1990)
Min Temperature 43 °F 40 °F 26 °F (1984)
Degree Days  
Heating Degree Days 12    
Growing Degree Days 4 (Base 50)    
Moisture  
Dew Point 50 °F    
Average Humidity 88    
Maximum Humidity 100    
Minimum Humidity 53    
Precipitation  
Precipitation 0.14 in - - ()
Sea Level Pressure  
Sea Level Pressure 29.84 in    
Wind  
Wind Speed 7 mph (West)    
Max Wind Speed 16 mph    
Max Gust Speed 24 mph    
Visibility 8 miles    
Events Rain    
Averages and records for this station are not official NWS values.
T = Trace of Precipitation, MM = Missing Value Source: NWS Daily Summary

Daily Weather History Graph

Daily Weather History Graph

Search for Another Location

Airport:

Trip Planner

Search our weather history database for the weather conditions in past years. The results will help you decide how hot, cold, wet, or windy it might be!

Date:

Astronomy

Oct. 06, 2012 Rise Set
Actual Time 7:05 AM EDT 6:33 PM EDT
Civil Twilight 6:36 AM EDT 7:01 PM EDT
Nautical Twilight 6:03 AM EDT 7:34 PM EDT
Astronomical Twilight 5:30 AM EDT 8:07 PM EDT
Moon 10:39 PM EDT (10/6) 1:05 PM EDT (10/6)
Length of Visible Light 12h 24m
Length of Day
11h 27m
Waning Gibbous, 65% of the Moon is Illuminated
Oct 6
Waning Gibbous
Oct 8
Last Quarter
Oct 15
New
Oct 21
First Quarter
Oct 29
Full

Hourly Weather History & Observations

Time (EDT) Temp. Windchill Dew Point Humidity Pressure Visibility Wind Dir Wind Speed Gust Speed Precip Events Conditions
12:19 AM 61.0 °F - 57.9 °F 90% 29.88 in 9.0 mi East 3.5 mph - N/A   Overcast
12:53 AM 61.0 °F - 57.9 °F 90% 29.86 in 7.0 mi East 4.6 mph - 0.00 in Rain Light Rain
1:53 AM 60.1 °F - 57.9 °F 93% 29.83 in 6.0 mi Calm Calm - 0.01 in   Overcast
2:17 AM 60.1 °F - 57.9 °F 93% 29.83 in 7.0 mi Calm Calm - N/A   Overcast
2:53 AM 59.0 °F - 57.0 °F 93% 29.80 in 7.0 mi Calm Calm - N/A   Overcast
3:48 AM 57.2 °F - 57.2 °F 100% 29.77 in 2.0 mi ESE 3.5 mph - N/A   Scattered Clouds
3:53 AM 57.9 °F - 57.0 °F 97% 29.76 in 3.0 mi SSE 3.5 mph - N/A   Partly Cloudy
4:18 AM 59.0 °F - 57.9 °F 96% 29.78 in 5.0 mi WSW 5.8 mph - N/A   Mostly Cloudy
4:25 AM 59.0 °F - 57.9 °F 96% 29.78 in 4.0 mi West 11.5 mph - N/A   Overcast
4:53 AM 57.9 °F - 55.9 °F 93% 29.75 in 10.0 mi West 4.6 mph - N/A   Overcast
5:22 AM 57.9 °F - 55.9 °F 93% 29.77 in 10.0 mi West 6.9 mph - 0.00 in Rain Light Rain
5:28 AM 57.0 °F - 55.9 °F 96% 29.76 in 10.0 mi West 6.9 mph - 0.00 in Rain Light Rain
5:53 AM 57.0 °F - 55.0 °F 93% 29.75 in 10.0 mi WSW 4.6 mph - 0.00 in Rain Light Rain
6:05 AM 55.9 °F - 55.0 °F 97% 29.75 in 10.0 mi West 4.6 mph - 0.00 in   Overcast
6:53 AM 54.0 °F - 52.0 °F 93% 29.78 in 10.0 mi West 12.7 mph - 0.00 in Rain Light Rain
7:12 AM 54.0 °F - 52.0 °F 93% 29.80 in 8.0 mi West 13.8 mph - 0.01 in Rain Rain
7:19 AM 54.0 °F - 52.0 °F 93% 29.80 in 9.0 mi WNW 16.1 mph - 0.01 in Rain Light Rain
7:26 AM 53.1 °F - 52.0 °F 96% 29.81 in 10.0 mi West 11.5 mph - 0.02 in Rain Light Rain
7:53 AM 53.1 °F - 51.1 °F 93% 29.81 in 10.0 mi WNW 11.5 mph - 0.02 in Rain Light Rain
8:53 AM 52.0 °F - 50.0 °F 93% 29.81 in 10.0 mi West 8.1 mph - 0.04 in Rain Light Rain
9:22 AM 51.1 °F - 50.0 °F 96% 29.82 in 6.0 mi West 8.1 mph - 0.00 in Rain Light Rain
9:31 AM 52.0 °F - 50.0 °F 93% 29.82 in 7.0 mi West 5.8 mph - 0.01 in Rain Light Rain
9:39 AM 51.1 °F - 50.0 °F 96% 29.82 in 8.0 mi West 4.6 mph - 0.01 in Rain Light Rain
9:48 AM 51.8 °F - 50.0 °F 94% 29.83 in 10.0 mi West 6.9 mph - 0.01 in Rain Light Rain
9:53 AM 51.1 °F - 50.0 °F 96% 29.83 in 10.0 mi West 6.9 mph - 0.01 in Rain Light Rain
9:57 AM 51.1 °F - 50.0 °F 96% 29.83 in 10.0 mi West 6.9 mph - 0.00 in Rain Light Rain
10:16 AM 52.0 °F - 50.0 °F 93% 29.83 in 6.0 mi West 6.9 mph - 0.01 in Rain Light Rain
10:26 AM 52.0 °F - 50.0 °F 93% 29.83 in 6.0 mi WNW 6.9 mph - 0.01 in Rain Light Rain
10:36 AM 51.1 °F - 50.0 °F 96% 29.84 in 5.0 mi WNW 6.9 mph - 0.01 in Rain Light Rain
10:53 AM 52.0 °F - 50.0 °F 93% 29.83 in 6.0 mi West 9.2 mph - 0.02 in   Overcast
11:22 AM 52.0 °F - 50.0 °F 93% 29.84 in 6.0 mi West 8.1 mph - 0.00 in Rain Light Rain
11:49 AM 51.8 °F - 50.0 °F 94% 29.85 in 2.5 mi WNW 11.5 mph - 0.01 in Rain Light Rain
11:50 AM 51.1 °F - 50.0 °F 96% 29.85 in 2.5 mi WNW 10.4 mph - 0.01 in Rain Light Rain
11:58 AM 51.1 °F - 48.9 °F 92% 29.85 in 3.0 mi West 12.7 mph - 0.00 in Rain Light Rain
12:34 PM 51.1 °F - 48.9 °F 92% 29.86 in 2.5 mi West 10.4 mph - 0.01 in Rain Light Rain
12:53 PM 51.1 °F - 48.9 °F 92% 29.87 in 2.0 mi West 10.4 mph - 0.02 in Rain Light Rain
1:15 PM 51.1 °F - 48.9 °F 92% 29.87 in 8.0 mi West 8.1 mph - 0.01 in Rain Light Rain
1:30 PM 51.1 °F - 48.9 °F 92% 29.87 in 9.0 mi West 10.4 mph - 0.01 in   Overcast
1:49 PM 51.8 °F - 48.2 °F 88% 29.87 in 10.0 mi West 5.8 mph - 0.01 in   Overcast
1:53 PM 52.0 °F - 48.9 °F 89% 29.86 in 10.0 mi West 6.9 mph - 0.01 in   Overcast
2:48 PM 57.2 °F - 46.4 °F 67% 29.86 in 10.0 mi West 15.0 mph 21.9 mph N/A   Scattered Clouds
2:53 PM 55.0 °F - 44.1 °F 67% 29.86 in 10.0 mi West 15.0 mph 21.9 mph N/A   Mostly Cloudy
3:53 PM 57.0 °F - 42.1 °F 57% 29.87 in 10.0 mi WNW 16.1 mph 21.9 mph 0.00 in Rain Light Rain
4:53 PM 57.0 °F - 39.9 °F 53% 29.87 in 10.0 mi West 15.0 mph 24.2 mph 0.00 in Rain Light Rain
5:53 PM 54.0 °F - 41.0 °F 62% 29.89 in 10.0 mi WNW 11.5 mph - 0.00 in   Scattered Clouds
7:53 PM 50.0 °F - 42.1 °F 74% 29.95 in 10.0 mi WNW 5.8 mph - 0.00 in   Mostly Cloudy
8:53 PM 50.0 °F - 37.9 °F 63% 29.98 in 10.0 mi West 12.7 mph - N/A   Mostly Cloudy
9:53 PM 48.0 °F - 36.0 °F 63% 30.00 in 10.0 mi West 4.6 mph - N/A   Mostly Cloudy
10:53 PM 46.0 °F 43.9 °F 35.1 °F 66% 30.01 in 10.0 mi WSW 4.6 mph - N/A   Mostly Cloudy
11:53 PM 43.0 °F 40.3 °F 35.1 °F 74% 30.03 in 10.0 mi WNW 4.6 mph - N/A   Partly Cloudy